Location: Lake Zurich
(42.1970°N, 88.0930°W)
Time: 01:56:38
(UTC-05:00)

Daily predictions for brighter satellites

Satellite Brightness Start Highest point End
(mag) Time Altitude Azimuth Time Altitude Azimuth Time Altitude Azimuth
Cosmos 2278 Rocket 4.2 00:03:25 13° E 00:03:25 13° E 00:05:47 10° ENE
ERBS 4.4 00:07:22 10° WNW 00:08:46 20° WNW 00:08:46 20° WNW
Terra 4.0 00:10:53 13° WSW 00:12:23 15° W 00:15:04 10° NW
Cosmos 2034 Rocket 3.9 00:08:54 10° N 00:15:18 86° W 00:17:05 51° S
Cosmos 1933 4.1 00:12:26 10° N 00:16:12 42° ENE 00:16:12 42° ENE
COSMOS 2406 3.7 00:11:40 10° NNW 00:17:12 51° ENE 00:19:01 37° ESE
ALOS 2 2.4 00:23:03 87° SSE 00:23:08 90° NW 00:27:32 10° NNW
CZ-4C R/B 2.1 00:22:54 56° SE 00:23:10 57° ESE 00:28:53 10° NE
Cosmos 2263 Rocket 3.4 00:20:31 17° WSW 00:24:11 36° WNW 00:29:22 10° N
Meteor 2-10 Rocket 3.8 00:20:44 10° N 00:26:00 60° ENE 00:27:04 50° ESE
Cosmos 292 Rocket 4.1 00:25:28 10° NNW 00:30:10 55° ENE 00:30:47 51° E
Sich 1 3.6 00:30:17 46° W 00:30:32 47° WNW 00:34:41 10° N
CZ-4B R/B 3.5 00:31:59 21° ENE 00:31:59 21° ENE 00:34:31 10° NNE
Cosmos 1869 4.3 00:28:46 10° NNW 00:32:05 36° W 00:32:05 36° W
Cosmos 1315 Rocket 3.9 00:34:45 34° ENE 00:34:45 34° ENE 00:37:42 10° NNE
Meteor 2-3 Rocket 4.4 00:36:55 38° ESE 00:37:55 42° E 00:43:20 10° NNE
Cosmos 1400 Rocket 3.0 00:41:35 75° N 00:41:35 75° N 00:45:25 10° N
Cosmos 2346 Rocket 4.3 00:48:40 56° S 00:50:06 85° E 00:56:14 10° N
Cosmos 773 Rocket 4.3 00:46:45 10° NNW 00:51:57 60° ENE 00:53:04 48° ESE
Cosmos 1634 Rocket 3.9 00:48:19 10° N 00:54:32 77° E 00:56:07 52° SSE
Cosmos 1844 Rocket 2.6 00:57:53 60° SW 00:58:57 83° WNW 01:04:34 10° NNE
Cosmos 1777 Rocket 3.9 00:58:49 64° SE 00:59:15 67° ESE 01:04:27 10° NNE
Cosmos 1862 Rocket 3.7 00:55:52 10° NNW 01:00:01 62° W 01:00:01 62° W
Cosmos 1933 Rocket 3.8 01:01:51 60° W 01:01:52 60° W 01:06:12 10° N
Spot 2 4.3 00:57:28 10° N 01:02:16 66° WNW 01:02:40 62° WSW
Cosmos 2142 Rocket 4.4 01:01:55 10° N 01:08:14 87° E 01:09:49 54° S
Cosmos 1346 Rocket 3.6 01:06:01 10° N 01:09:34 44° ENE 01:09:34 44° ENE
In-Cosmos 22 Rocket 4.3 01:08:49 54° SW 01:09:51 65° WNW 01:15:24 10° N
CZ-2C R/B 4.3 01:09:06 31° WSW 01:10:00 32° W 01:15:08 10° NNW
CZ-4C R/B 4.2 01:11:16 37° NNW 01:11:16 37° NNW 01:13:26 10° NNW
Aureole 3 4.4 01:11:57 51° SSE 01:13:15 64° E 01:18:22 10° NNE
Cosmos 1892 3.0 01:16:20 65° NNW 01:16:20 65° NNW 01:19:45 10° N
Cosmos 2221 Rocket 3.9 01:14:27 10° N 01:18:48 53° E 01:19:08 52° E
SAR-Lupe-2 4.3 01:22:19 49° NNW 01:22:19 49° NNW 01:25:04 10° NNW
SL-27 R/B 3.5 01:23:12 10° NNW 01:25:39 42° N 01:25:39 42° N
SeaSat 1 4.2 01:26:03 11° ESE 01:30:05 28° NE 01:34:17 10° N
Cosmos 1703 Rocket 3.5 01:26:55 10° N 01:31:24 78° W 01:31:27 78° WSW
CZ-2C R/B 4.4 01:31:05 10° NNW 01:35:02 22° WNW 01:37:21 16° W
Cosmos 1606 3.4 01:32:16 10° N 01:36:00 48° ENE 01:36:00 48° ENE
H-2A R/B 2.5 01:38:51 10° NNE 01:43:25 86° ESE 01:43:42 77° S
Genesis I 3.4 01:46:04 64° ENE 01:46:04 64° ENE 01:49:31 10° NE
Cosmos 2278 Rocket 2.1 01:45:14 55° SSW 01:46:34 85° WNW 01:52:16 10° NNE
Cosmos 1844 4.5 01:49:47 31° WSW 01:51:50 42° WNW 01:57:10 10° NNE
Nadezhda 4 Rocket 4.2 01:50:38 41° SSE 01:52:51 67° E 01:59:08 10° NNE
Cosmos 1869 Rocket 3.7 01:54:19 56° W 01:54:30 57° W 01:58:49 10° N
Cosmos 1833 Rocket 3.5 01:49:30 10° NNW 01:55:00 49° ENE 01:58:54 19° SE
Okean 1-7 3.2 01:53:54 10° NNW 01:58:09 58° W 01:58:09 58° W
Cosmos 1689 Rocket 4.5 01:59:56 18° NW 01:59:56 18° NW 02:01:08 10° NW
Cosmos 923 Rocket 4.1 01:57:19 10° NNW 02:02:23 53° WSW 02:02:55 50° SW
COSMOS 2487 4.1 01:59:15 10° N 02:02:25 29° ENE 02:03:26 25° E
Cosmos 1461 2.8 02:03:34 69° WNW 02:03:38 69° NW 02:07:36 10° NNE
CZ-4B R/B 3.5 02:05:33 19° WNW 02:05:33 19° WNW 02:07:11 10° NW
Cosmos 2297 3.9 02:04:57 45° SSE 02:06:30 63° ESE 02:12:06 10° NNE
Cosmos 2279 Rocket 4.4 02:01:13 10° NNW 02:07:11 49° W 02:08:54 39° SW
SL-16 R/B 4.1 02:03:12 10° ESE 02:08:30 31° ENE 02:13:51 10° N
Meteor 1-10 Rocket 4.3 02:06:09 10° NNW 02:11:53 66° W 02:13:33 46° SSW
CZ-4C R/B 3.9 02:08:03 13° W 02:12:05 28° NW 02:17:20 10° NNE
Exosat Rocket 4.3 02:12:09 10° NNW 02:17:37 67° ENE 02:24:04 13° SSE
Cosmos 1733 Rocket 3.1 02:19:01 57° SSE 02:19:49 74° E 02:24:11 10° NNE
Cosmos 2082 Rocket 2.2 02:14:17 10° NNW 02:19:56 81° ENE 02:22:59 28° SSE
Cosmos 1862 3.2 02:20:10 73° S 02:20:33 90° ESE 02:24:38 10° N
ADEOS Rocket 4.2 02:13:25 10° NNE 02:20:42 45° E 02:25:04 22° SSE
Cosmos 192 4.4 02:16:04 10° NNW 02:20:54 55° WSW 02:21:34 50° SW
BREEZE-M DEB (TANK) 4.4 02:18:10 35° S 02:20:56 55° SE 02:44:05 10° ENE
Cosmos 1825 2.6 02:21:09 49° WNW 02:21:09 49° WNW 02:24:51 10° N
PSLV R/B 3.9 02:17:17 10° N 02:21:34 54° WNW 02:22:20 47° WSW
Cosmos 1782 3.9 02:26:21 10° NNW 02:29:43 31° W 02:29:43 31° W
ATLAS 3B R/B 3.0 02:28:25 33° S 02:31:52 62° ESE 02:38:59 10° NE
Cosmos 2112 Rocket 4.4 02:27:32 10° NNW 02:32:31 44° WSW 02:33:25 40° SW
Cosmos 44 3.0 02:32:00 53° SSW 02:33:05 85° ESE 02:37:36 10° NE
Cosmos 1408 3.7 02:34:05 30° WNW 02:34:05 30° WNW 02:37:14 10° NNW
Sich 1 Rocket 4.3 02:38:43 31° SSE 02:40:36 50° E 02:45:02 10° NNE
Meteor 1-27 Rocket 3.9 02:35:01 10° NNW 02:40:54 64° W 02:43:19 36° SSW
Cosmos 44 Rocket 3.4 02:41:11 40° WSW 02:42:47 67° NW 02:47:33 10° NNE
Cosmos 1680 Rocket 4.5 02:40:45 10° NW 02:45:14 29° W 02:45:44 28° WSW
Cosmos 1627 Rocket 4.5 02:42:21 31° S 02:45:29 79° E 02:51:39 10° N
AQUA 3.9 02:40:50 10° NNE 02:45:35 69° ESE 02:47:29 36° S
Okean 3 3.9 02:41:28 10° N 02:45:41 60° E 02:47:40 29° SSE
PSLV R/B 4.1 02:45:26 48° SW 02:45:56 51° W 02:50:01 10° NNW
Helios 1A Rocket 3.4 02:42:34 10° N 02:46:33 48° WNW 02:47:25 41° WSW
Cosmos 1674 Rocket 3.5 02:45:04 10° NNW 02:49:31 71° W 02:50:50 44° SSW
Timation 2 Rocket 3.9 02:44:02 10° NNW 02:50:07 87° ENE 02:56:12 11° SSE
Cosmos 1937 Rocket 3.4 02:49:53 38° SSW 02:51:54 81° WNW 02:57:05 10° NNE
Meteor 2-20 Rocket 4.4 02:51:48 32° SSW 02:54:53 79° W 03:01:06 10° N
Resurs 1-4 Rocket 2.7 02:51:36 10° NNE 02:56:46 50° E 03:00:04 21° SSE
COBE Rocket 3.9 02:54:16 10° NNE 02:59:05 75° ESE 03:01:30 30° S
Geosat 4.1 02:54:44 10° NNE 02:59:46 70° ESE 03:02:09 31° SSW
Cosmos 1908 Rocket 3.5 02:58:20 37° S 03:00:04 86° E 03:04:33 10° N
BREEZE M DEB (TANK) 3.4 02:59:11 24° WNW 03:00:10 32° NNW 03:02:13 10° NE
BREEZE-M DEB (TANK) 2.7 03:04:04 31° SE 03:04:11 31° SE 03:07:58 10° ENE
Cosmos 1092 Rocket 4.4 03:01:33 28° SW 03:04:34 49° WNW 03:10:38 10° N
BREEZE-M R/B 4.4 02:57:43 10° WNW 03:05:20 50° NNE 03:09:05 10° E
Cosmos 1898 Rocket 4.1 03:03:10 28° WSW 03:05:27 45° WNW 03:10:30 10° N
SeaSat 1 2.8 03:05:50 32° SSW 03:07:25 42° WSW 03:12:07 10° NW
Cosmos 990 Rocket 4.0 03:05:25 32° SW 03:07:45 69° WNW 03:12:55 10° NNE
Okean 2 Rocket 4.1 03:05:26 18° SSE 03:08:23 41° E 03:12:31 10° NNE
IRS-1C 4.1 03:05:33 10° NNE 03:10:55 81° WNW 03:13:51 28° SSW
Cosmos 1378 Rocket 3.4 03:06:52 10° NNW 03:11:12 76° W 03:13:18 29° S
CZ-2D R/B 2.4 03:06:56 10° NNE 03:12:18 68° ESE 03:15:55 21° S
Cosmos 1125 Rocket 4.4 03:11:41 18° SSE 03:15:19 44° ESE 03:20:20 10° NNE
Cosmos 2026 Rocket 4.0 03:13:40 26° SSW 03:17:08 65° W 03:23:10 10° N
ARIANE 5 R/B 2.7 03:12:38 10° NNE 03:17:38 68° ESE 03:20:57 21° S
Cosmos 1553 Rocket 4.1 03:11:14 10° N 03:17:39 82° E 03:23:53 11° S
Cosmos 1340 3.9 03:14:42 10° NW 03:17:49 24° W 03:18:02 24° W
Spot 4 Rocket 4.0 03:14:54 10° NNE 03:20:05 85° ESE 03:23:21 23° SSW
SL-08 R/B 3.8 03:18:19 29° SSW 03:20:18 43° W 03:24:53 10° NNW
Cosmos 1782 Rocket 3.6 03:20:21 26° S 03:22:52 88° E 03:27:23 10° N
USA 238 DEB 3.7 03:18:44 24° SW 03:23:14 87° WNW 03:30:18 10° NE
USA 238 3.7 03:18:50 24° SW 03:23:20 88° WNW 03:30:24 10° NE
UNKNOWN OBJECT B 3.8 03:23:51 10° NNE 03:27:22 38° E 03:30:08 14° SSE
IRS-1D 3.4 03:22:36 10° NNE 03:27:45 88° WNW 03:31:04 22° SSW
Meteor 1-18 Rocket 4.2 03:25:07 10° N 03:30:42 86° E 03:36:16 10° S
Cosmos 2278 Rocket 4.4 03:28:19 10° W 03:31:32 15° NW 03:34:47 10° N
CZ-3A R/B 4.4 03:30:32 16° S 03:33:39 19° SSE 03:46:54 10° SE
Meteor 2-11 Rocket 4.4 03:29:16 10° NNW 03:35:25 74° W 03:41:13 12° S
Meteor 1-20 Rocket 4.3 03:32:31 17° S 03:37:06 86° E 03:43:00 10° N
COSMOS 2487 4.4 03:35:22 10° WNW 03:37:16 16° W 03:37:16 16° W
Cosmos 1943 Rocket 3.6 03:33:34 10° SSE 03:38:32 32° ESE 03:43:29 10° NE
Cosmos 1833 Rocket 3.8 03:34:07 10° NW 03:38:34 24° WSW 03:40:32 20° SW
Okean O Rocket 4.3 03:36:40 10° ENE 03:38:43 13° E 03:40:47 10° ESE
GP-B 4.4 03:36:26 10° NNW 03:40:04 25° WNW 03:41:55 19° WSW
Cosmos 1346 2.6 03:37:47 10° N 03:40:31 88° W 03:41:59 24° S
Cosmos 2369 Rocket 2.5 03:36:24 16° S 03:40:47 62° ESE 03:46:22 10° NNE
Cosmos 1269 Rocket 4.3 03:38:45 10° NNW 03:44:05 70° ENE 03:49:21 10° SSE
Cosmos 1437 3.0 03:41:02 10° NNW 03:44:11 49° W 03:45:48 24° SSW
Cosmos 1655 Rocket 4.3 03:40:47 19° SSW 03:45:08 51° WNW 03:51:13 10° N
Cosmos 405 Rocket 3.0 03:41:38 10° N 03:45:38 71° E 03:49:30 10° SSE
UNK 4.1 03:42:47 19° SSW 03:45:50 44° W 03:50:20 10° NNW
CZ-3B DEB 4.0 03:34:48 10° NW 03:47:48 65° SW 03:58:21 10° SSE
COSMOS 2455 3.8 03:44:22 10° S 03:49:56 41° ESE 03:55:32 10° NE
Cosmos 1812 3.2 03:47:30 10° NNW 03:51:11 42° W 03:53:35 19° SSW
SL-16 R/B 2.9 03:46:39 13° S 03:51:53 46° W 03:57:53 10° NNW
ADEOS II 3.9 03:47:54 10° NE 03:52:21 27° E 03:56:46 10° SSE
Cosmos 1975 Rocket 3.4 03:48:23 10° NNW 03:52:33 47° W 03:55:49 16° SSW
Cosmos 372 Rocket 4.0 03:49:53 15° SSW 03:54:15 81° ESE 03:59:28 10° NNE
Cosmos 2151 Rocket 3.9 03:51:51 10° S 03:56:20 69° E 04:00:52 10° NNE
USA 267 3.3 03:50:55 10° NE 03:57:28 74° SE 04:03:11 14° SW
USA 161 2.3 04:00:07 10° SSE 04:02:22 42° ENE 04:04:49 10° N
NOSS 3-2 (C) 3.7 03:57:46 14° SSW 04:03:00 69° ESE 04:09:32 10° NE
Cosmos 2082 Rocket 3.9 04:00:33 10° WNW 04:03:14 14° W 04:04:46 12° WSW
NOSS 3-2 (A) 3.5 03:58:42 15° SSW 04:03:45 89° ESE 04:10:24 10° NE
Cosmos 1536 4.4 04:00:13 10° SSE 04:03:48 33° E 04:07:23 10° NNE
ADEOS Rocket 4.2 03:59:01 10° N 04:05:58 39° WNW 04:12:01 12° SW
Abrixas 4.3 04:03:37 10° NW 04:06:06 29° NNE 04:08:34 10° E
Cosmos 158 Rocket 3.9 04:02:10 10° NNW 04:07:16 70° WSW 04:12:12 10° S
SL-24 R/B 4.2 04:03:59 10° NNE 04:08:08 86° ESE 04:12:53 10° SSW
Cosmos 1602 3.7 04:08:25 10° S 04:12:21 88° WNW 04:16:19 10° N
Cosmos 2344 3.7 04:05:50 13° SW 04:12:50 87° WNW 04:21:29 10° NE
Cosmos 1536 Rocket 3.6 04:10:44 10° N 04:15:15 89° SW 04:19:43 10° S
Cosmos 2315 Rocket 4.1 04:10:31 10° N 04:16:52 85° E 04:23:07 10° S
Cosmos 2266 Rocket 4.2 04:14:12 10° SSW 04:20:31 62° W 04:26:52 10° N
BREEZE-M DEB (TANK) 3.1 04:16:50 10° WNW 04:21:18 37° SW 04:23:55 10° SSE
CENTAUR R/B 3.9 04:16:25 10° S 04:21:36 32° ESE 04:27:22 10° NE
ATLAS 3B R/B 3.9 04:16:19 10° WSW 04:23:01 35° NW 04:29:28 10° NNE
MOZ.5/SAFIR/RUBIN 5/SL-8 4.2 04:18:40 10° S 04:23:11 43° W 04:27:43 10° NNW
Cosmos 1048 Rocket 4.4 04:22:19 10° NNW 04:27:27 46° WSW 04:32:33 10° S
GENESIS II 4.3 04:26:48 10° SW 04:30:46 75° NW 04:34:49 10° NNE
Gbstr 26 Del rocket 3.0 04:27:41 10° SW 04:31:17 57° SE 04:35:04 10° ENE
USA 234 4.3 04:25:35 10° ESE 04:31:53 52° NNE 04:38:11 10° NW
Cosmos 1633 3.6 04:29:01 10° SW 04:32:15 30° WNW 04:35:31 10° NNW
Okean 1 4.5 04:29:46 10° NNW 04:33:11 26° W 04:36:35 10° SSW
Resurs 1-4 Rocket 3.6 04:32:11 10° NNW 04:36:15 23° WNW 04:40:19 10° WSW
CZ-4B R/B 4.1 04:35:06 10° NNE 04:40:31 51° E 04:45:57 10° S
MOS 1 Rocket 4.5 04:36:53 10° N 04:41:44 35° WNW 04:46:24 10° SW
Meteor 2-4 Rocket 3.7 04:37:57 10° NNW 04:43:38 81° W 04:49:06 10° S
Okean 1 Rocket 3.2 04:40:38 10° S 04:45:07 86° E 04:49:36 10° N
